| time (UTC) | temp F | wind direction | speed knots | gust knots | rain 1hr in | rain 24hr in | rain mn in | humidity % | barometer mb |
| 20260508070053 | 69 | 0 | 0.0 | 0.0 | 0.00 | 0.01 | 0.00 | 84 | 1013.2 |
| 20260508064601 | 69 | 0 | 0.0 | 0.9 | 0.00 | 0.01 | 0.00 | 84 | 1013.9 |
| 20260508063052 | 69 | 0 | 0.0 | 0.0 | 0.00 | 0.01 | 0.00 | 84 | 1014.0 |
| 20260508061556 | 69 | 0 | 0.0 | 1.7 | 0.00 | 0.01 | 0.00 | 83 | 1013.9 |
| 20260508060052 | 69 | 0 | 0.0 | 2.6 | 0.00 | 0.01 | 0.00 | 83 | 1013.7 |
| 20260508054600 | 70 | 0 | 0.0 | 1.7 | 0.00 | 0.01 | 0.00 | 82 | 1013.7 |
| 20260508053055 | 70 | 0 | 0.0 | 1.7 | 0.00 | 0.01 | 0.00 | 82 | 1013.6 |
| 20260508051555 | 70 | 0 | 0.0 | 3.5 | 0.00 | 0.01 | 0.00 | 82 | 1013.5 |
| 20260508050054 | 70 | 0 | 0.0 | 2.6 | 0.00 | 0.01 | 0.00 | 82 | 1013.5 |
| 20260508044553 | 70 | 0 | 0.0 | 1.7 | 0.00 | 0.02 | 0.01 | 82 | 1013.5 |
| 20260508043059 | 71 | 0 | 0.0 | 1.7 | 0.00 | 0.02 | 0.01 | 82 | 1014.3 |
| 20260508041557 | 71 | 0 | 0.0 | 3.5 | 0.00 | 0.02 | 0.01 | 81 | 1014.3 |
| 20260508040053 | 71 | 0 | 0.0 | 2.6 | 0.00 | 0.02 | 0.01 | 81 | 1014.7 |
| 20260508034558 | 72 | 35 | 0.0 | 1.7 | 0.00 | 0.02 | 0.01 | 80 | 1014.6 |
| 20260508033054 | 72 | 0 | 0.0 | 0.9 | 0.00 | 0.02 | 0.01 | 79 | 1014.9 |
| 20260508031557 | 72 | 0 | 0.0 | 2.6 | 0.00 | 0.02 | 0.01 | 79 | 1014.9 |
| 20260508030054 | 73 | 0 | 0.9 | 4.3 | 0.00 | 0.02 | 0.01 | 79 | 1014.3 |
| 20260508024553 | 73 | 0 | 0.0 | 1.7 | 0.00 | 0.02 | 0.01 | 80 | 1014.4 |
| 20260508023052 | 73 | 0 | 0.0 | 2.6 | 0.00 | 0.02 | 0.01 | 79 | 1014.5 |
| 20260508021553 | 74 | 0 | 0.0 | 4.3 | 0.00 | 0.02 | 0.01 | 79 | 1014.3 |
| 20260508020053 | 75 | 0 | 0.0 | 1.7 | 0.00 | 0.02 | 0.01 | 81 | 1014.3 |
| 20260508014555 | 75 | 0 | 0.0 | 0.0 | 0.00 | 0.02 | 0.01 | 81 | 1014.1 |
| 20260508013050 | 75 | 27 | 0.0 | 0.9 | 0.00 | 0.02 | 0.01 | 80 | 1014.4 |
| 20260508011549 | 75 | 0 | 0.0 | 1.7 | 0.00 | 0.02 | 0.01 | 80 | 1014.1 |
| 20260508010050 | 75 | 0 | 0.0 | 1.7 | 0.00 | 0.02 | 0.01 | 80 | 1013.9 |
| 20260508004550 | 75 | 0 | 0.0 | 1.7 | 0.00 | 0.02 | 0.01 | 79 | 1014.1 |
| 20260508003100 | 76 | 0 | 0.0 | 2.6 | 0.00 | 0.02 | 0.01 | 79 | 1014.2 |
| 20260508001559 | 76 | 0 | 0.0 | 1.7 | 0.00 | 0.02 | 0.01 | 78 | 1014.2 |
| 20260508000100 | 76 | 0 | 0.0 | 2.6 | 0.00 | 0.02 | 0.01 | 78 | 1013.9 |
| 20260507234554 | 76 | 0 | 0.0 | 2.6 | 0.00 | 0.02 | 0.01 | 78 | 1013.8 |
| 20260507233052 | 77 | 0 | 0.0 | 4.3 | 0.00 | 0.02 | 0.01 | 77 | 1013.9 |
| 20260507231555 | 77 | 0 | 0.0 | 2.6 | 0.00 | 0.02 | 0.01 | 77 | 1013.9 |
| 20260507230052 | 77 | 0 | 0.0 | 2.6 | 0.00 | 0.02 | 0.01 | 77 | 1013.8 |
| 20260507224615 | 77 | 0 | 0.9 | 4.3 | 0.00 | 0.02 | 0.01 | 77 | 1013.6 |
| 20260507223056 | 78 | 303 | 0.0 | 4.3 | 0.00 | 0.02 | 0.01 | 77 | 1013.7 |
| 20260507221551 | 78 | 69 | 0.0 | 5.2 | 0.00 | 0.02 | 0.01 | 77 | 1013.8 |
| 20260507220051 | 78 | 71 | 0.0 | 4.3 | 0.00 | 0.02 | 0.01 | 76 | 1013.8 |
| 20260507214553 | 78 | 0 | 0.0 | 2.6 | 0.00 | 0.02 | 0.01 | 77 | 1013.7 |
| 20260507213054 | 78 | 0 | 0.0 | 2.6 | 0.00 | 0.02 | 0.01 | 77 | 1013.7 |
| 20260507211609 | 78 | 0 | 0.0 | 1.7 | 0.00 | 0.02 | 0.01 | 76 | 1013.9 |
| 20260507210054 | 78 | 0 | 0.0 | 3.5 | 0.00 | 0.02 | 0.01 | 76 | 1014.2 |
| 20260507204559 | 77 | 299 | 0.0 | 4.3 | 0.00 | 0.02 | 0.01 | 78 | 1014.3 |
| 20260507203051 | 77 | 62 | 0.9 | 5.2 | 0.00 | 0.02 | 0.01 | 77 | 1014.5 |
| 20260507201609 | 77 | 59 | 0.9 | 4.3 | 0.00 | 0.02 | 0.01 | 76 | 1014.7 |
| 20260507194558 | 77 | 0 | 0.0 | 5.2 | 0.00 | 0.02 | 0.01 | 78 | 1015.0 |
| 20260507193104 | 76 | 0 | 0.0 | 1.7 | 0.00 | 0.02 | 0.01 | 78 | 1015.0 |
| 20260507191556 | 75 | 45 | 0.0 | 5.2 | 0.00 | 0.02 | 0.01 | 79 | 1015.1 |
| 20260507190053 | 75 | 339 | 0.0 | 1.7 | 0.00 | 0.02 | 0.01 | 79 | 1015.5 |
| 20260507184554 | 74 | 0 | 0.0 | 3.5 | 0.00 | 0.02 | 0.01 | 80 | 1015.4 |
| 20260507183059 | 72 | 25 | 0.0 | 7.0 | 0.00 | 0.02 | 0.01 | 81 | 1015.6 |
| 20260507181551 | 72 | 70 | 0.9 | 4.3 | 0.00 | 0.02 | 0.01 | 81 | 1015.9 |
| 20260507180052 | 71 | 101 | 0.9 | 5.2 | 0.00 | 0.02 | 0.01 | 82 | 1015.9 |
| 20260507174553 | 69 | 0 | 0.0 | 2.6 | 0.00 | 0.02 | 0.01 | 82 | 1016.2 |
| 20260507173101 | 68 | 0 | 0.0 | 3.5 | 0.00 | 0.02 | 0.01 | 83 | 1016.3 |
| 20260507171558 | 67 | 0 | 0.0 | 3.5 | 0.00 | 0.02 | 0.01 | 83 | 1016.3 |
| 20260507170056 | 67 | 0 | 0.0 | 3.5 | 0.00 | 0.02 | 0.01 | 83 | 1016.2 |
| 20260507164551 | 67 | 26 | 0.0 | 7.8 | 0.01 | 0.03 | 0.01 | 83 | 1016.1 |
| 20260507163049 | 66 | 42 | 0.9 | 6.1 | 0.01 | 0.03 | 0.01 | 84 | 1016.2 |
| 20260507161551 | 65 | 0 | 0.0 | 6.1 | 0.01 | 0.03 | 0.01 | 84 | 1016.3 |
| 20260507160052 | 65 | 0 | 0.9 | 4.3 | 0.01 | 0.03 | 0.01 | 84 | 1016.3 |
| 20260507154555 | 65 | 0 | 0.9 | 4.3 | 0.00 | 0.02 | 0.00 | 84 | 1016.5 |
| 20260507153058 | 64 | 0 | 0.0 | 8.7 | 0.00 | 0.02 | 0.00 | 85 | 1016.5 |
| 20260507151551 | 63 | 0 | 1.7 | 5.2 | 0.00 | 0.02 | 0.00 | 85 | 1016.4 |
| 20260507150055 | 63 | 0 | 0.0 | 3.5 | 0.00 | 0.02 | 0.00 | 85 | 1016.1 |
| 20260507144552 | 63 | 352 | 1.7 | 8.7 | 0.00 | 0.02 | 0.00 | 85 | 1016.0 |
| 20260507143054 | 63 | 0 | 0.0 | 4.3 | 0.00 | 0.02 | 0.00 | 86 | 1016.3 |
| 20260507141550 | 63 | 0 | 0.0 | 4.3 | 0.00 | 0.02 | 0.00 | 85 | 1016.3 |
| 20260507140105 | 64 | 0 | 0.0 | 2.6 | 0.00 | 0.02 | 0.00 | 86 | 1016.4 |
| 20260507134556 | 63 | 53 | 0.0 | 7.0 | 0.00 | 0.02 | 0.00 | 86 | 1016.7 |
| 20260507133054 | 63 | 0 | 0.0 | 3.5 | 0.00 | 0.02 | 0.00 | 86 | 1016.2 |
| 20260507131552 | 63 | 5 | 0.0 | 2.6 | 0.00 | 0.02 | 0.00 | 86 | 1016.3 |
| 20260507130055 | 63 | 0 | 0.0 | 7.8 | 0.00 | 0.02 | 0.00 | 86 | 1015.9 |
| 20260507124559 | 63 | 298 | 0.0 | 1.7 | 0.00 | 0.02 | 0.00 | 86 | 1015.6 |
| 20260507123054 | 63 | 0 | 0.0 | 2.6 | 0.00 | 0.02 | 0.00 | 86 | 1015.5 |
| 20260507122033 | 64 | 360 | 0.0 | 2.6 | 0.00 | 0.02 | 0.00 | 86 | 1015.2 |
| 20260507121555 | 64 | 0 | 0.0 | 2.6 | 0.00 | 0.02 | 0.00 | 86 | 1015.3 |
| 20260507120053 | 64 | 0 | 0.0 | 2.6 | 0.00 | 0.02 | 0.00 | 86 | 1014.8 |
| 20260507114554 | 64 | 75 | 0.0 | 5.2 | 0.00 | 0.02 | 0.00 | 86 | 1014.5 |
| 20260507113054 | 64 | 57 | 0.0 | 3.5 | 0.00 | 0.02 | 0.00 | 85 | 1014.2 |
| 20260507111553 | 65 | 59 | 0.9 | 4.3 | 0.00 | 0.02 | 0.00 | 85 | 1014.4 |
| 20260507110057 | 65 | 0 | 0.9 | 6.1 | 0.00 | 0.02 | 0.00 | 85 | 1014.3 |
| 20260507104555 | 65 | 0 | 1.7 | 4.3 | 0.00 | 0.02 | 0.00 | 85 | 1014.2 |
| 20260507103055 | 65 | 0 | 0.0 | 7.8 | 0.00 | 0.02 | 0.00 | 86 | 1013.9 |
| 20260507101604 | 66 | 0 | 0.9 | 5.2 | 0.00 | 0.02 | 0.00 | 86 | 1013.7 |
| 20260507100053 | 66 | 0 | 1.7 | 6.1 | 0.00 | 0.02 | 0.00 | 86 | 1013.5 |
| 20260507094559 | 67 | 0 | 1.7 | 7.0 | 0.00 | 0.02 | 0.00 | 86 | 1013.4 |
| 20260507093052 | 67 | 78 | 0.0 | 4.3 | 0.00 | 0.02 | 0.00 | 86 | 1013.4 |
| 20260507091603 | 67 | 0 | 0.0 | 3.5 | 0.00 | 0.02 | 0.00 | 86 | 1013.4 |
| 20260507090110 | 68 | 5 | 0.9 | 5.2 | 0.00 | 0.02 | 0.00 | 86 | 1013.4 |
| 20260507084549 | 68 | 352 | 0.0 | 2.6 | 0.00 | 0.02 | 0.00 | 87 | 1013.0 |
| 20260507083100 | 68 | 9 | 0.0 | 2.6 | 0.00 | 0.02 | 0.00 | 87 | 1013.0 |
| 20260507081559 | 69 | 0 | 0.0 | 3.5 | 0.00 | 0.02 | 0.00 | 87 | 1013.2 |
| 20260507080057 | 69 | 0 | 0.0 | 1.7 | 0.00 | 0.02 | 0.00 | 87 | 1013.1 |
| 20260507074558 | 69 | 52 | 0.0 | 2.6 | 0.00 | 0.02 | 0.00 | 87 | 1013.4 |
| 20260507073101 | 69 | 0 | 0.0 | 1.7 | 0.00 | 0.02 | 0.00 | 86 | 1013.4 |
| 20260507071556 | 70 | 0 | 0.0 | 4.3 | 0.00 | 0.02 | 0.00 | 86 | 1013.1 |